Location: Austin
(30.3000°N, 97.7500°W)
Time: 02:43:11
(UTC-05:00)

NOAA 15 - Pass Details

Date: 01 October 2024
Orbit: 795 x 810 km, 98.6° (Epoch: 06 October)

Event Time Altitude Azimuth Distance (km) Brightness Sun altitude
Rises 20:13:37 0° 161° (SSE) 3,282 7.5 -13.4°
Reaches altitude 10° 20:15:56 10° 160° (SSE) 2,355 6.8 -13.9°
Maximum altitude 20:21:07 74° 75° (ENE) 827 4.5 -15.0°
Drops below altitude 10° 20:26:20 10° 352° (N) 2,369 7.2 -16.1°
Sets 20:28:40 0° 350° (N) 3,303 8.0 -16.6°
